Tracking 35331 objects as of 17-Sep-2026
HD Live streaming from Space Station
objects crossing your sky now

OPS 3722 DEB


OPS 3722 DEB is no longer on orbit


NORAD ID: 2663
Int'l Code: 1964-011D
Launch date: February 28, 1964
Source: United States (US)
Launch site: AIR FORCE WESTERN TEST RANGE (AFWTR)
Decay date: 1967-03-01

Note: This is SATELLITE DEBRIS
Your satellite tracking list
Your tracking list is empty




NASA's NSSDC Master Catalog

Two Line Element Set (TLE):
1 02663U 64011  D 67036.31294108  .01220411 +00000-0 +00000-0 0  9990
2 02663 082.0540 220.6319 0013209 330.0835 029.9547 15.65530187163432
Source of the keplerian elements: AFSPC